Weather History for Twentynine Palms, CA

Change the Weather History Date:

Sunday, February 16, 2014

  Actual Average Record
Temperature  
Mean Temperature 68 °F -  
Max Temperature 81 °F 61 °F 81 °F (2014)
Min Temperature 54 °F 40 °F 33 °F (2006)
Cooling Degree Days 3    
Growing Degree Days 18 (Base 50)    
Moisture  
Dew Point 21 °F    
Average Humidity 19    
Maximum Humidity 26    
Minimum Humidity 12    
Precipitation  
Precipitation 0.00 in - - ()
Sea Level Pressure  
Sea Level Pressure 29.97 in    
Wind  
Wind Speed 5 mph (West)    
Max Wind Speed 9 mph    
Max Gust Speed -    
Visibility 10 miles    
Events      
Averages and records for this station are not official NWS values.
T = Trace of Precipitation, MM = Missing Value Source: NWS Daily Summary

Daily Weather History Graph

Daily Weather History Graph

Search for Another Location

Airport:

Trip Planner

Search our weather history database for the weather conditions in past years. The results will help you decide how hot, cold, wet, or windy it might be!

Date:

Astronomy

Feb. 16, 2014 Rise Set
Actual Time 6:28 AM PST 5:29 PM PST
Civil Twilight 6:02 AM PST 5:54 PM PST
Nautical Twilight 5:33 AM PST 6:24 PM PST
Astronomical Twilight 5:04 AM PST 6:53 PM PST
Moon 7:22 PM PST (2/16) 7:06 AM PST (2/16)
Length of Visible Light 11h 52m
Length of Day
11h 00m
Full, 97% of the Moon is Illuminated
Feb 16
Full
Feb 22
Last Quarter
Mar 1
New
Mar 8
First Quarter
Mar 16
Full

Hourly Weather History & Observations

Time (PST) Temp. Dew Point Humidity Pressure Visibility Wind Dir Wind Speed Gust Speed Precip Events Conditions
12:56 AM 57.0 °F 17.1 °F 21% 29.97 in 10.0 mi WNW 5.8 mph - N/A   Clear
1:56 AM 57.9 °F 18.0 °F 21% 29.95 in 10.0 mi Calm Calm - N/A   Clear
2:56 AM 55.9 °F 19.0 °F 24% 29.94 in 10.0 mi West 8.1 mph - N/A   Clear
3:56 AM 55.9 °F 19.0 °F 24% 29.93 in 10.0 mi WNW 6.9 mph - N/A   Clear
4:56 AM 55.9 °F 19.9 °F 25% 29.96 in 10.0 mi Variable 3.5 mph - N/A   Clear
5:56 AM 57.9 °F 21.0 °F 24% 29.98 in 10.0 mi Variable 3.5 mph - N/A   Clear
6:56 AM 61.0 °F 21.0 °F 21% 30.00 in 10.0 mi NW 9.2 mph - N/A   Clear
7:56 AM 60.1 °F 21.0 °F 22% 30.02 in 9.0 mi NW 4.6 mph - N/A   Clear
8:56 AM 62.1 °F 21.0 °F 21% 30.03 in 10.0 mi NNW 5.8 mph - N/A   Clear
9:56 AM 64.0 °F 21.0 °F 19% 30.04 in 10.0 mi Calm Calm - N/A   Clear
10:56 AM 69.1 °F 19.9 °F 15% 30.02 in 10.0 mi North 5.8 mph - N/A   Clear
11:56 AM 75.9 °F 21.9 °F 13% 30.00 in 10.0 mi North 3.5 mph - N/A   Clear
12:56 PM 79.0 °F 21.9 °F 12% 29.96 in 10.0 mi West 6.9 mph - N/A   Clear
1:56 PM 80.1 °F 25.0 °F 13% 29.95 in 10.0 mi NW 9.2 mph - N/A   Clear
2:56 PM 81.0 °F 27.0 °F 14% 29.94 in 10.0 mi WNW 6.9 mph - N/A   Clear
3:56 PM 78.1 °F 21.9 °F 12% 29.96 in 10.0 mi SE 8.1 mph - N/A   Clear
4:56 PM 75.9 °F 21.0 °F 13% 29.98 in 10.0 mi ESE 8.1 mph - N/A   Clear
5:56 PM 70.0 °F 21.0 °F 16% 30.00 in 10.0 mi SSE 6.9 mph - N/A   Clear
6:56 PM 66.9 °F 19.9 °F 17% 30.02 in 10.0 mi South 3.5 mph - N/A   Clear
7:56 PM 60.1 °F 19.9 °F 21% 30.05 in 10.0 mi WSW 8.1 mph - N/A   Clear
8:56 PM 62.1 °F 21.0 °F 21% 29.40 in 10.0 mi Calm Calm - N/A   Clear
9:56 PM 55.9 °F 19.9 °F 25% 30.08 in 9.0 mi South 4.6 mph - N/A   Clear
10:56 PM 55.9 °F 21.0 °F 26% 30.07 in 10.0 mi West 8.1 mph - N/A   Clear
11:56 PM 54.0 °F 19.9 °F 26% 30.06 in 10.0 mi Calm Calm - N/A   Clear